| time (UTC) | temp F | wind direction | speed knots | gust knots | rain 1hr in | rain 24hr in | rain mn in | humidity % | barometer mb |
| 20260905181004 | 85 | 157 | 0.0 | 1.7 | 0.00 | 0.00 | 0.00 | 79 | 1009.6 |
| 20260905180530 | 85 | 157 | 0.0 | 1.7 | 0.00 | 0.02 | 0.00 | 79 | 1009.7 |
| 20260905180503 | 86 | 169 | 0.0 | 1.7 | 0.00 | 0.00 | 0.00 | 79 | 1009.6 |
| 20260905180003 | 86 | 154 | 0.0 | 1.7 | 0.00 | 0.00 | 0.00 | 78 | 1009.6 |
| 20260905175519 | 86 | 154 | 0.0 | 1.7 | 0.00 | 0.02 | 0.00 | 78 | 1009.8 |
| 20260905175503 | 86 | 151 | 0.0 | 1.7 | 0.00 | 0.00 | 0.00 | 78 | 1009.7 |
| 20260905175004 | 86 | 157 | 0.0 | 1.7 | 0.00 | 0.00 | 0.00 | 77 | 1009.7 |
| 20260905174527 | 86 | 157 | 0.0 | 1.7 | 0.00 | 0.02 | 0.00 | 77 | 1009.8 |
| 20260905174503 | 86 | 0.0 | 1.7 | 0.00 | 0.00 | 0.00 | 77 | 1009.7 | |
| 20260905174004 | 86 | 167 | 0.0 | 1.7 | 0.00 | 0.00 | 0.00 | 77 | 1009.6 |
| 20260905173519 | 86 | 167 | 0.0 | 1.7 | 0.00 | 0.02 | 0.00 | 77 | 1009.8 |
| 20260905173504 | 86 | 158 | 0.0 | 1.7 | 0.00 | 0.00 | 0.00 | 77 | 1009.8 |
| 20260905173004 | 86 | 153 | 0.0 | 1.7 | 0.00 | 0.00 | 0.00 | 77 | 1009.9 |
| 20260905172526 | 86 | 153 | 0.0 | 1.7 | 0.00 | 0.02 | 0.00 | 77 | 1010.0 |
| 20260905172504 | 86 | 157 | 0.0 | 1.7 | 0.00 | 0.00 | 0.00 | 77 | 1010.0 |
| 20260905172004 | 86 | 149 | 0.0 | 1.7 | 0.00 | 0.00 | 0.00 | 77 | 1010.0 |
| 20260905171518 | 86 | 149 | 0.0 | 1.7 | 0.00 | 0.02 | 0.00 | 77 | 1010.1 |
| 20260905171504 | 86 | 154 | 0.0 | 1.7 | 0.00 | 0.00 | 0.00 | 77 | 1010.0 |
| 20260905171004 | 86 | 169 | 0.0 | 1.7 | 0.00 | 0.00 | 0.00 | 76 | 1010.2 |
| 20260905170608 | 86 | 169 | 0.0 | 1.7 | 0.00 | 0.02 | 0.00 | 76 | 1010.4 |
| 20260905170504 | 86 | 171 | 0.0 | 2.6 | 0.00 | 0.00 | 0.00 | 76 | 1010.3 |
| 20260905170003 | 86 | 186 | 0.0 | 2.6 | 0.00 | 0.00 | 0.00 | 76 | 1010.4 |
| 20260905165539 | 86 | 186 | 0.0 | 2.6 | 0.00 | 0.02 | 0.02 | 76 | 1010.6 |
| 20260905165503 | 86 | 161 | 0.0 | 1.7 | 0.00 | 0.00 | 0.00 | 76 | 1010.5 |
| 20260905165004 | 86 | 167 | 0.0 | 1.7 | 0.00 | 0.00 | 0.00 | 75 | 1010.6 |
| 20260905164527 | 86 | 167 | 0.0 | 1.7 | 0.00 | 0.02 | 0.02 | 75 | 1010.8 |
| 20260905164503 | 86 | 180 | 0.0 | 1.7 | 0.00 | 0.00 | 0.00 | 76 | 1010.7 |
| 20260905164004 | 86 | 172 | 0.0 | 1.7 | 0.00 | 0.00 | 0.00 | 76 | 1010.7 |
| 20260905163519 | 86 | 172 | 0.0 | 1.7 | 0.00 | 0.02 | 0.02 | 76 | 1010.8 |
| 20260905163503 | 86 | 166 | 0.9 | 1.7 | 0.00 | 0.00 | 0.00 | 76 | 1010.8 |
| 20260905163003 | 86 | 161 | 0.0 | 1.7 | 0.00 | 0.00 | 0.00 | 76 | 1010.7 |
| 20260905162526 | 86 | 161 | 0.0 | 1.7 | 0.00 | 0.02 | 0.02 | 76 | 1010.9 |
| 20260905162503 | 86 | 166 | 0.0 | 1.7 | 0.00 | 0.00 | 0.00 | 75 | 1010.8 |
| 20260905162004 | 86 | 189 | 0.0 | 1.7 | 0.00 | 0.00 | 0.00 | 75 | 1010.7 |
| 20260905161519 | 86 | 189 | 0.0 | 1.7 | 0.00 | 0.02 | 0.02 | 75 | 1010.9 |
| 20260905161503 | 86 | 183 | 0.0 | 1.7 | 0.00 | 0.00 | 0.00 | 75 | 1010.8 |
| 20260905161004 | 86 | 175 | 0.9 | 1.7 | 0.00 | 0.00 | 0.00 | 76 | 1010.9 |
| 20260905160527 | 86 | 175 | 0.9 | 1.7 | 0.00 | 0.02 | 0.02 | 76 | 1011.1 |
| 20260905160504 | 86 | 184 | 0.0 | 1.7 | 0.00 | 0.00 | 0.00 | 76 | 1010.8 |
| 20260905160003 | 86 | 184 | 0.0 | 1.7 | 0.00 | 0.00 | 0.00 | 75 | 1010.9 |
| 20260905155542 | 86 | 184 | 0.0 | 1.7 | 0.00 | 0.02 | 0.02 | 75 | 1011.0 |
| 20260905155504 | 86 | 178 | 0.0 | 1.7 | 0.00 | 0.00 | 0.00 | 75 | 1010.9 |
| 20260905155003 | 86 | 182 | 0.9 | 1.7 | 0.00 | 0.00 | 0.00 | 76 | 1010.8 |
| 20260905154527 | 86 | 182 | 0.9 | 1.7 | 0.00 | 0.02 | 0.02 | 76 | 1011.0 |
| 20260905154503 | 86 | 179 | 0.0 | 1.7 | 0.00 | 0.00 | 0.00 | 76 | 1010.8 |
| 20260905154003 | 86 | 166 | 0.0 | 1.7 | 0.00 | 0.00 | 0.00 | 76 | 1010.8 |
| 20260905153518 | 86 | 167 | 0.0 | 1.7 | 0.00 | 0.02 | 0.02 | 76 | 1011.0 |
| 20260905153503 | 86 | 186 | 0.0 | 1.7 | 0.00 | 0.00 | 0.00 | 77 | 1010.8 |
| 20260905153004 | 86 | 190 | 0.0 | 1.7 | 0.00 | 0.00 | 0.00 | 77 | 1010.7 |
| 20260905152522 | 86 | 190 | 0.0 | 1.7 | 0.00 | 0.02 | 0.02 | 77 | 1010.8 |
| 20260905152504 | 86 | 134 | 0.0 | 1.7 | 0.00 | 0.00 | 0.00 | 77 | 1010.7 |
| 20260905152003 | 86 | 178 | 0.0 | 1.7 | 0.00 | 0.00 | 0.00 | 77 | 1010.7 |
| 20260905151530 | 86 | 178 | 0.0 | 1.7 | 0.00 | 0.02 | 0.02 | 77 | 1010.9 |
| 20260905151504 | 86 | 172 | 0.9 | 1.7 | 0.00 | 0.00 | 0.00 | 77 | 1010.8 |
| 20260905151004 | 86 | 184 | 0.0 | 1.7 | 0.00 | 0.00 | 0.00 | 77 | 1010.7 |
| 20260905150523 | 86 | 184 | 0.0 | 1.7 | 0.00 | 0.02 | 0.02 | 77 | 1010.9 |
| 20260905150503 | 86 | 168 | 0.9 | 1.7 | 0.00 | 0.00 | 0.00 | 77 | 1010.7 |
| 20260905150003 | 86 | 175 | 0.9 | 1.7 | 0.00 | 0.00 | 0.00 | 77 | 1010.6 |
| 20260905145530 | 86 | 175 | 0.9 | 1.7 | 0.00 | 0.02 | 0.02 | 77 | 1010.8 |
| 20260905145504 | 85 | 177 | 0.9 | 1.7 | 0.00 | 0.00 | 0.00 | 77 | 1010.5 |
| 20260905145003 | 85 | 156 | 0.0 | 1.7 | 0.00 | 0.00 | 0.00 | 77 | 1010.4 |
| 20260905144522 | 85 | 156 | 0.0 | 1.7 | 0.00 | 0.02 | 0.02 | 77 | 1010.6 |
| 20260905144503 | 85 | 170 | 0.9 | 1.7 | 0.00 | 0.00 | 0.00 | 76 | 1010.4 |
| 20260905144003 | 85 | 174 | 0.0 | 1.7 | 0.00 | 0.00 | 0.00 | 77 | 1010.3 |
| 20260905143531 | 85 | 174 | 0.0 | 1.7 | 0.00 | 0.02 | 0.02 | 77 | 1010.5 |
| 20260905143504 | 85 | 167 | 0.9 | 1.7 | 0.00 | 0.00 | 0.00 | 77 | 1010.2 |
| 20260905143004 | 85 | 169 | 0.9 | 1.7 | 0.00 | 0.00 | 0.00 | 77 | 1010.0 |
| 20260905142522 | 85 | 169 | 0.9 | 1.7 | 0.00 | 0.02 | 0.02 | 77 | 1010.2 |
| 20260905142503 | 85 | 159 | 0.0 | 1.7 | 0.00 | 0.00 | 0.00 | 77 | 1009.8 |
| 20260905142003 | 85 | 178 | 0.0 | 1.7 | 0.00 | 0.00 | 0.00 | 77 | 1009.7 |
| 20260905141552 | 85 | 178 | 0.0 | 1.7 | 0.00 | 0.02 | 0.02 | 77 | 1009.9 |
| 20260905141504 | 85 | 179 | 0.9 | 1.7 | 0.00 | 0.00 | 0.00 | 78 | 1009.7 |
| 20260905141004 | 85 | 148 | 0.0 | 1.7 | 0.00 | 0.00 | 0.00 | 79 | 1009.7 |
| 20260905140523 | 85 | 148 | 0.0 | 1.7 | 0.00 | 0.02 | 0.02 | 79 | 1009.8 |
| 20260905140504 | 85 | 154 | 0.0 | 1.7 | 0.00 | 0.00 | 0.00 | 79 | 1009.5 |
| 20260905140004 | 85 | 181 | 0.0 | 1.7 | 0.00 | 0.00 | 0.00 | 78 | 1009.4 |
| 20260905135531 | 85 | 181 | 0.0 | 1.7 | 0.00 | 0.02 | 0.02 | 78 | 1009.6 |
| 20260905135503 | 85 | 166 | 0.9 | 1.7 | 0.00 | 0.00 | 0.00 | 79 | 1009.3 |
| 20260905135004 | 84 | 179 | 0.9 | 2.6 | 0.00 | 0.00 | 0.00 | 79 | 1009.3 |
| 20260905134522 | 84 | 179 | 0.9 | 2.6 | 0.00 | 0.02 | 0.02 | 79 | 1009.4 |
| 20260905134503 | 84 | 166 | 0.9 | 2.6 | 0.00 | 0.00 | 0.00 | 80 | 1009.2 |
| 20260905134004 | 84 | 168 | 0.9 | 2.6 | 0.00 | 0.00 | 0.00 | 80 | 1009.1 |
| 20260905133530 | 84 | 168 | 0.9 | 2.6 | 0.00 | 0.02 | 0.02 | 80 | 1009.3 |
| 20260905133504 | 84 | 162 | 0.0 | 1.7 | 0.00 | 0.00 | 0.00 | 82 | 1009.2 |
| 20260905133003 | 84 | 166 | 0.0 | 1.7 | 0.00 | 0.00 | 0.00 | 82 | 1009.2 |
| 20260905132522 | 84 | 166 | 0.0 | 1.7 | 0.00 | 0.02 | 0.02 | 82 | 1009.4 |
| 20260905132503 | 84 | 161 | 0.0 | 1.7 | 0.00 | 0.00 | 0.00 | 82 | 1009.1 |
| 20260905132003 | 84 | 186 | 0.0 | 2.6 | 0.00 | 0.00 | 0.00 | 82 | 1008.8 |
| 20260905131530 | 84 | 186 | 0.0 | 2.6 | 0.00 | 0.02 | 0.02 | 82 | 1009.0 |
| 20260905131504 | 83 | 158 | 0.0 | 2.6 | 0.00 | 0.00 | 0.00 | 83 | 1009.0 |
| 20260905131003 | 83 | 180 | 0.0 | 1.7 | 0.00 | 0.00 | 0.00 | 83 | 1009.4 |
| 20260905130543 | 83 | 180 | 0.0 | 1.7 | 0.00 | 0.02 | 0.02 | 83 | 1009.5 |
| 20260905130504 | 83 | 161 | 0.9 | 1.7 | 0.00 | 0.00 | 0.00 | 82 | 1009.3 |
| 20260905130004 | 83 | 125 | 0.0 | 1.7 | 0.00 | 0.00 | 0.00 | 82 | 1009.1 |
| 20260905125530 | 83 | 125 | 0.0 | 1.7 | 0.00 | 0.02 | 0.02 | 82 | 1009.2 |
| 20260905125503 | 83 | 166 | 0.0 | 2.6 | 0.00 | 0.00 | 0.00 | 82 | 1009.0 |
| 20260905125004 | 83 | 176 | 0.0 | 2.6 | 0.00 | 0.00 | 0.00 | 82 | 1008.9 |
| 20260905124543 | 83 | 176 | 0.0 | 2.6 | 0.00 | 0.02 | 0.02 | 82 | 1009.0 |
| 20260905124503 | 82 | 175 | 0.0 | 2.6 | 0.00 | 0.00 | 0.00 | 82 | 1008.9 |
| 20260905124003 | 82 | 172 | 0.0 | 1.7 | 0.00 | 0.00 | 0.00 | 82 | 1008.6 |
| 20260905123530 | 82 | 172 | 0.0 | 1.7 | 0.00 | 0.02 | 0.02 | 82 | 1008.8 |
| 20260905123503 | 82 | 154 | 0.0 | 1.7 | 0.00 | 0.00 | 0.00 | 83 | 1008.8 |
| 20260905123003 | 82 | 155 | 0.0 | 2.6 | 0.00 | 0.00 | 0.00 | 83 | 1008.9 |
| 20260905122522 | 82 | 155 | 0.0 | 2.6 | 0.02 | 0.02 | 0.02 | 83 | 1009.1 |
| 20260905122503 | 82 | 179 | 0.9 | 2.6 | 0.00 | 0.00 | 0.00 | 83 | 1009.1 |
| 20260905122003 | 81 | 168 | 0.0 | 2.6 | 0.00 | 0.00 | 0.00 | 85 | 1009.0 |
| 20260905121551 | 81 | 168 | 0.0 | 2.6 | 0.02 | 0.02 | 0.02 | 85 | 1009.2 |
| 20260905121503 | 81 | 167 | 0.0 | 1.7 | 0.00 | 0.00 | 0.00 | 86 | 1008.6 |
| 20260905121003 | 81 | 180 | 0.0 | 1.7 | 0.00 | 0.00 | 0.00 | 85 | 1008.5 |
| 20260905120522 | 81 | 180 | 0.0 | 1.7 | 0.02 | 0.02 | 0.02 | 85 | 1008.7 |
| 20260905120503 | 81 | 159 | 0.0 | 1.7 | 0.00 | 0.00 | 0.00 | 85 | 1008.5 |
| 20260905120004 | 81 | 166 | 0.0 | 1.7 | 0.00 | 0.00 | 0.00 | 85 | 1008.6 |
| 20260905115531 | 81 | 166 | 0.0 | 1.7 | 0.02 | 0.02 | 0.02 | 85 | 1008.7 |
| 20260905115504 | 81 | 163 | 0.0 | 1.7 | 0.01 | 0.00 | 0.00 | 86 | 1008.6 |
| 20260905115003 | 81 | 181 | 0.9 | 1.7 | 0.05 | 0.00 | 0.00 | 87 | 1008.4 |
| 20260905114522 | 81 | 181 | 0.9 | 1.7 | 0.02 | 0.02 | 0.02 | 87 | 1008.6 |
| 20260905114503 | 81 | 172 | 0.9 | 1.7 | 0.08 | 0.00 | 0.00 | 87 | 1008.4 |
| 20260905114003 | 82 | 167 | 0.9 | 3.5 | 0.07 | 0.00 | 0.00 | 85 | 1008.5 |
| 20260905113529 | 82 | 167 | 0.9 | 3.5 | 0.02 | 0.02 | 0.02 | 85 | 1008.6 |
| 20260905113504 | 83 | 157 | 0.9 | 3.5 | 0.03 | 0.00 | 0.00 | 82 | 1008.2 |
| 20260905113003 | 84 | 171 | 0.9 | 3.5 | 0.00 | 0.00 | 0.00 | 76 | 1008.3 |
| 20260905112542 | 84 | 171 | 0.9 | 3.5 | 0.00 | 0.00 | 0.00 | 76 | 1008.4 |
| 20260905112504 | 86 | 165 | 1.7 | 6.1 | 0.00 | 0.00 | 0.00 | 72 | 1008.5 |
| 20260905112003 | 88 | 206 | 1.7 | 6.1 | 0.00 | 0.00 | 0.00 | 69 | 1008.4 |
| 20260905111529 | 88 | 206 | 1.7 | 6.1 | 0.00 | 0.00 | 0.00 | 69 | 1008.5 |
| 20260905111503 | 91 | 163 | 1.7 | 4.3 | 0.00 | 0.00 | 0.00 | 66 | 1007.9 |
| 20260905111003 | 91 | 188 | 0.9 | 3.5 | 0.00 | 0.00 | 0.00 | 64 | 1007.6 |
| 20260905110521 | 91 | 188 | 0.9 | 3.5 | 0.00 | 0.00 | 0.00 | 64 | 1007.8 |
| 20260905110504 | 92 | 205 | 0.9 | 2.6 | 0.00 | 0.00 | 0.00 | 63 | 1007.2 |
| 20260905110004 | 92 | 178 | 0.9 | 2.6 | 0.00 | 0.00 | 0.00 | 62 | 1007.1 |
| 20260905105530 | 92 | 178 | 0.9 | 2.6 | 0.00 | 0.00 | 0.00 | 62 | 1007.2 |
| 20260905105503 | 92 | 171 | 0.9 | 2.6 | 0.00 | 0.00 | 0.00 | 62 | 1006.8 |
| 20260905105003 | 93 | 179 | 0.9 | 2.6 | 0.00 | 0.00 | 0.00 | 61 | 1006.5 |
| 20260905104521 | 93 | 179 | 0.9 | 2.6 | 0.00 | 0.00 | 0.00 | 61 | 1006.7 |
| 20260905104504 | 93 | 179 | 0.9 | 3.5 | 0.00 | 0.00 | 0.00 | 59 | 1006.5 |
| 20260905104003 | 94 | 173 | 0.9 | 3.5 | 0.00 | 0.00 | 0.00 | 58 | 1006.5 |
| 20260905103550 | 94 | 173 | 0.9 | 3.5 | 0.00 | 0.00 | 0.00 | 58 | 1006.6 |
| 20260905103503 | 95 | 176 | 0.9 | 3.5 | 0.00 | 0.00 | 0.00 | 56 | 1006.5 |
| 20260905103004 | 96 | 202 | 0.0 | 1.7 | 0.00 | 0.00 | 0.00 | 53 | 1006.3 |
| 20260905102521 | 96 | 202 | 0.0 | 1.7 | 0.00 | 0.00 | 0.00 | 53 | 1006.5 |
| 20260905102503 | 96 | 202 | 0.9 | 1.7 | 0.00 | 0.00 | 0.00 | 47 | 1006.2 |
| 20260905102003 | 97 | 200 | 0.0 | 1.7 | 0.00 | 0.00 | 0.00 | 46 | 1006.0 |
| 20260905101529 | 97 | 200 | 0.0 | 1.7 | 0.00 | 0.00 | 0.00 | 46 | 1006.2 |
| 20260905101503 | 96 | 200 | 0.0 | 1.7 | 0.00 | 0.00 | 0.00 | 46 | 1006.0 |
| 20260905101003 | 97 | 195 | 0.0 | 1.7 | 0.00 | 0.00 | 0.00 | 46 | 1006.1 |
| 20260905100542 | 97 | 195 | 0.0 | 1.7 | 0.00 | 0.00 | 0.00 | 46 | 1006.3 |
| 20260905100504 | 97 | 217 | 0.0 | 1.7 | 0.00 | 0.00 | 0.00 | 46 | 1006.1 |
| 20260905100003 | 97 | 166 | 0.0 | 1.7 | 0.00 | 0.00 | 0.00 | 46 | 1006.1 |
| 20260905095530 | 97 | 166 | 0.0 | 1.7 | 0.00 | 0.00 | 0.00 | 46 | 1006.2 |
| 20260905095504 | 97 | 197 | 0.0 | 1.7 | 0.00 | 0.00 | 0.00 | 47 | 1006.1 |
| 20260905095004 | 97 | 192 | 0.9 | 2.6 | 0.00 | 0.00 | 0.00 | 46 | 1006.1 |
| 20260905094603 | 97 | 192 | 0.9 | 2.6 | 0.00 | 0.00 | 0.00 | 46 | 1006.3 |
| 20260905094504 | 97 | 82 | 0.0 | 1.7 | 0.00 | 0.00 | 0.00 | 47 | 1005.9 |
| 20260905094004 | 96 | 171 | 0.0 | 1.7 | 0.00 | 0.00 | 0.00 | 47 | 1005.8 |
| 20260905093530 | 96 | 171 | 0.0 | 1.7 | 0.00 | 0.00 | 0.00 | 47 | 1006.0 |
| 20260905093504 | 97 | 232 | 0.0 | 1.7 | 0.00 | 0.00 | 0.00 | 46 | 1005.9 |
| 20260905093004 | 97 | 140 | 0.0 | 1.7 | 0.00 | 0.00 | 0.00 | 47 | 1005.8 |
| 20260905092525 | 97 | 140 | 0.0 | 1.7 | 0.00 | 0.00 | 0.00 | 47 | 1006.0 |
| 20260905092504 | 97 | 226 | 0.0 | 2.6 | 0.00 | 0.00 | 0.00 | 47 | 1005.8 |
| 20260905092003 | 97 | 226 | 0.0 | 2.6 | 0.00 | 0.00 | 0.00 | 47 | 1005.8 |
| 20260905091551 | 97 | 226 | 0.0 | 2.6 | 0.00 | 0.00 | 0.00 | 47 | 1005.9 |
| 20260905091504 | 97 | 142 | 0.0 | 2.6 | 0.00 | 0.00 | 0.00 | 48 | 1005.8 |
| 20260905091004 | 97 | 182 | 0.9 | 2.6 | 0.00 | 0.00 | 0.00 | 48 | 1005.8 |
| 20260905090525 | 97 | 182 | 0.9 | 2.6 | 0.00 | 0.00 | 0.00 | 48 | 1006.0 |
| 20260905090504 | 97 | 199 | 0.9 | 2.6 | 0.00 | 0.00 | 0.00 | 48 | 1005.9 |
| 20260905090004 | 97 | 205 | 0.9 | 2.6 | 0.00 | 0.00 | 0.00 | 48 | 1005.9 |
| 20260905085533 | 97 | 205 | 0.9 | 2.6 | 0.00 | 0.00 | 0.00 | 48 | 1006.1 |
| 20260905085503 | 97 | 175 | 0.9 | 2.6 | 0.00 | 0.00 | 0.00 | 48 | 1006.0 |
| 20260905085003 | 97 | 178 | 0.9 | 2.6 | 0.00 | 0.00 | 0.00 | 48 | 1006.0 |
| 20260905084523 | 97 | 178 | 0.9 | 2.6 | 0.00 | 0.00 | 0.00 | 48 | 1006.2 |
| 20260905084503 | 97 | 0.0 | 1.7 | 0.00 | 0.00 | 0.00 | 48 | 1006.1 | |
| 20260905084003 | 96 | 142 | 0.0 | 1.7 | 0.00 | 0.00 | 0.00 | 48 | 1006.3 |
| 20260905083556 | 96 | 142 | 0.0 | 1.7 | 0.00 | 0.00 | 0.00 | 48 | 1006.5 |
| 20260905083503 | 96 | 166 | 0.0 | 1.7 | 0.00 | 0.00 | 0.00 | 49 | 1006.4 |
| 20260905083004 | 96 | 144 | 0.0 | 2.6 | 0.00 | 0.00 | 0.00 | 50 | 1006.4 |
| 20260905082528 | 96 | 144 | 0.0 | 2.6 | 0.00 | 0.00 | 0.00 | 50 | 1006.6 |
| 20260905082504 | 97 | 204 | 0.9 | 2.6 | 0.00 | 0.00 | 0.00 | 49 | 1006.5 |
| 20260905082004 | 97 | 156 | 0.0 | 1.7 | 0.00 | 0.00 | 0.00 | 49 | 1006.6 |
| 20260905081550 | 97 | 156 | 0.0 | 1.7 | 0.00 | 0.00 | 0.00 | 49 | 1006.8 |
| 20260905081503 | 96 | 120 | 0.9 | 2.6 | 0.00 | 0.00 | 0.00 | 49 | 1006.5 |
| 20260905081003 | 96 | 73 | 0.0 | 2.6 | 0.00 | 0.00 | 0.00 | 50 | 1006.6 |
| 20260905080542 | 96 | 73 | 0.0 | 2.6 | 0.00 | 0.00 | 0.00 | 50 | 1006.7 |
| 20260905080503 | 96 | 315 | 0.9 | 3.5 | 0.00 | 0.00 | 0.00 | 50 | 1006.7 |
| 20260905080004 | 96 | 181 | 0.9 | 3.5 | 0.00 | 0.00 | 0.00 | 50 | 1006.8 |
| 20260905075529 | 96 | 181 | 0.9 | 3.5 | 0.00 | 0.00 | 0.00 | 50 | 1006.9 |
| 20260905075503 | 96 | 128 | 0.0 | 1.7 | 0.00 | 0.00 | 0.00 | 50 | 1006.8 |
| 20260905075004 | 95 | 232 | 0.0 | 1.7 | 0.00 | 0.00 | 0.00 | 50 | 1006.9 |
| 20260905074543 | 95 | 232 | 0.0 | 1.7 | 0.00 | 0.00 | 0.00 | 50 | 1007.1 |
| 20260905074503 | 95 | 237 | 0.0 | 2.6 | 0.00 | 0.00 | 0.00 | 51 | 1006.9 |
| 20260905074003 | 95 | 285 | 0.9 | 2.6 | 0.00 | 0.00 | 0.00 | 50 | 1007.0 |
| 20260905073551 | 95 | 285 | 0.9 | 2.6 | 0.00 | 0.00 | 0.00 | 50 | 1007.2 |
| 20260905073503 | 95 | 190 | 0.9 | 1.7 | 0.00 | 0.00 | 0.00 | 50 | 1007.1 |
| 20260905073004 | 96 | 232 | 0.0 | 2.6 | 0.00 | 0.00 | 0.00 | 50 | 1007.1 |
| 20260905072527 | 96 | 232 | 0.0 | 2.6 | 0.00 | 0.00 | 0.00 | 50 | 1007.3 |
| 20260905072503 | 96 | 206 | 0.9 | 4.3 | 0.00 | 0.00 | 0.00 | 50 | 1007.2 |
| 20260905072003 | 96 | 204 | 0.9 | 2.6 | 0.00 | 0.00 | 0.00 | 50 | 1007.3 |
| 20260905071529 | 96 | 204 | 0.9 | 2.6 | 0.00 | 0.00 | 0.00 | 50 | 1007.4 |
| 20260905071504 | 96 | 213 | 0.9 | 3.5 | 0.00 | 0.00 | 0.00 | 50 | 1007.3 |
| 20260905071003 | 96 | 344 | 0.9 | 3.5 | 0.00 | 0.00 | 0.00 | 50 | 1007.4 |
| 20260905070521 | 96 | 344 | 0.9 | 3.5 | 0.00 | 0.00 | 0.00 | 50 | 1007.6 |
| 20260905070504 | 96 | 202 | 0.9 | 3.5 | 0.00 | 0.00 | 0.00 | 50 | 1007.5 |
| 20260905070004 | 96 | 173 | 0.9 | 1.7 | 0.00 | 0.00 | 0.00 | 50 | 1007.6 |
| 20260905065530 | 96 | 173 | 0.9 | 1.7 | 0.00 | 0.00 | 0.00 | 50 | 1007.8 |
| 20260905065503 | 96 | 243 | 0.0 | 2.6 | 0.00 | 0.00 | 0.00 | 50 | 1007.7 |
| 20260905065003 | 96 | 128 | 0.0 | 1.7 | 0.00 | 0.00 | 0.00 | 50 | 1007.8 |
| 20260905064548 | 96 | 128 | 0.0 | 1.7 | 0.00 | 0.00 | 0.00 | 50 | 1008.0 |
| 20260905064503 | 96 | 227 | 0.9 | 1.7 | 0.00 | 0.00 | 0.00 | 49 | 1007.9 |
| 20260905064003 | 96 | 226 | 0.0 | 1.7 | 0.00 | 0.00 | 0.00 | 47 | 1008.0 |
| 20260905063630 | 96 | 226 | 0.0 | 1.7 | 0.00 | 0.00 | 0.00 | 47 | 1008.2 |
| 20260905063503 | 96 | 212 | 0.0 | 1.7 | 0.00 | 0.00 | 0.00 | 49 | 1008.1 |
| 20260905063003 | 95 | 188 | 0.9 | 1.7 | 0.00 | 0.00 | 0.00 | 50 | 1008.3 |
| 20260905062521 | 95 | 188 | 0.9 | 1.7 | 0.00 | 0.00 | 0.00 | 50 | 1008.5 |
| 20260905062504 | 95 | 51 | 0.0 | 1.7 | 0.00 | 0.00 | 0.00 | 50 | 1008.5 |
| 20260905062004 | 95 | 73 | 0.9 | 3.5 | 0.00 | 0.00 | 0.00 | 51 | 1008.6 |
| 20260905061531 | 95 | 73 | 0.9 | 3.5 | 0.00 | 0.00 | 0.00 | 51 | 1008.8 |
| 20260905061503 | 95 | 284 | 0.9 | 3.5 | 0.00 | 0.00 | 0.00 | 50 | 1008.7 |
| 20260905061003 | 96 | 180 | 0.9 | 2.6 | 0.00 | 0.00 | 0.00 | 50 | 1008.9 |
| 20260905060521 | 96 | 180 | 0.9 | 2.6 | 0.00 | 0.00 | 0.00 | 50 | 1009.0 |
| 20260905060503 | 96 | 214 | 0.0 | 1.7 | 0.00 | 0.00 | 0.00 | 50 | 1009.0 |
| 20260905060003 | 96 | 207 | 0.9 | 2.6 | 0.00 | 0.00 | 0.00 | 50 | 1009.1 |
| 20260905055531 | 96 | 207 | 0.9 | 2.6 | 0.00 | 0.00 | 0.00 | 50 | 1009.2 |
| 20260905055503 | 96 | 189 | 0.9 | 2.6 | 0.00 | 0.00 | 0.00 | 50 | 1009.3 |
| 20260905055004 | 96 | 277 | 0.0 | 1.7 | 0.00 | 0.00 | 0.00 | 50 | 1009.4 |
| 20260905054524 | 96 | 277 | 0.0 | 1.7 | 0.00 | 0.00 | 0.00 | 50 | 1009.6 |
| 20260905054504 | 96 | 125 | 0.9 | 1.7 | 0.00 | 0.00 | 0.00 | 50 | 1009.6 |
| 20260905054004 | 95 | 147 | 0.0 | 1.7 | 0.00 | 0.00 | 0.00 | 51 | 1009.6 |
| 20260905053551 | 95 | 147 | 0.0 | 1.7 | 0.00 | 0.00 | 0.00 | 51 | 1009.8 |
| 20260905053503 | 94 | 106 | 0.9 | 2.6 | 0.00 | 0.00 | 0.00 | 52 | 1009.7 |
| 20260905053003 | 93 | 47 | 0.0 | 2.6 | 0.00 | 0.00 | 0.00 | 53 | 1009.8 |
| 20260905052521 | 93 | 47 | 0.0 | 2.6 | 0.00 | 0.00 | 0.00 | 53 | 1010.0 |
| 20260905052504 | 93 | 237 | 0.9 | 2.6 | 0.00 | 0.00 | 0.00 | 54 | 1009.9 |
| 20260905052004 | 93 | 204 | 0.9 | 3.5 | 0.00 | 0.00 | 0.00 | 53 | 1010.1 |
| 20260905051529 | 93 | 204 | 0.9 | 3.5 | 0.00 | 0.00 | 0.00 | 53 | 1010.3 |
| 20260905051503 | 94 | 170 | 0.9 | 3.5 | 0.00 | 0.00 | 0.00 | 53 | 1010.1 |
| 20260905051003 | 94 | 337 | 0.0 | 1.7 | 0.00 | 0.00 | 0.00 | 53 | 1010.2 |
| 20260905050549 | 94 | 337 | 0.0 | 1.7 | 0.00 | 0.00 | 0.00 | 53 | 1010.3 |
| 20260905050503 | 94 | 151 | 0.9 | 3.5 | 0.00 | 0.00 | 0.00 | 53 | 1010.2 |
| 20260905050004 | 94 | 134 | 0.9 | 2.6 | 0.00 | 0.00 | 0.00 | 53 | 1010.4 |
| 20260905045535 | 94 | 134 | 0.9 | 2.6 | 0.00 | 0.00 | 0.00 | 53 | 1010.5 |
| 20260905045504 | 94 | 235 | 0.9 | 1.7 | 0.00 | 0.00 | 0.00 | 53 | 1010.4 |
| 20260905045004 | 94 | 246 | 0.9 | 1.7 | 0.00 | 0.00 | 0.00 | 53 | 1010.5 |
| 20260905044518 | 94 | 246 | 0.9 | 1.7 | 0.00 | 0.00 | 0.00 | 53 | 1010.6 |
| 20260905044504 | 94 | 300 | 0.9 | 2.6 | 0.00 | 0.00 | 0.00 | 54 | 1010.6 |
| 20260905044004 | 93 | 279 | 0.0 | 1.7 | 0.00 | 0.00 | 0.00 | 55 | 1010.5 |
| 20260905043525 | 93 | 279 | 0.0 | 1.7 | 0.00 | 0.00 | 0.00 | 55 | 1010.7 |
| 20260905043504 | 93 | 196 | 0.9 | 2.6 | 0.00 | 0.00 | 0.00 | 55 | 1010.7 |
| 20260905043003 | 92 | 241 | 0.0 | 1.7 | 0.00 | 0.00 | 0.00 | 55 | 1010.9 |
| 20260905042517 | 92 | 241 | 0.0 | 1.7 | 0.00 | 0.00 | 0.00 | 55 | 1011.1 |
| 20260905042504 | 92 | 164 | 0.9 | 2.6 | 0.00 | 0.00 | 0.00 | 56 | 1010.8 |
| 20260905042004 | 92 | 209 | 0.9 | 2.6 | 0.00 | 0.00 | 0.00 | 56 | 1010.9 |
| 20260905041524 | 92 | 209 | 0.9 | 2.6 | 0.00 | 0.00 | 0.00 | 56 | 1011.1 |
| 20260905041504 | 92 | 177 | 0.0 | 1.7 | 0.00 | 0.00 | 0.00 | 56 | 1011.0 |
| 20260905041003 | 92 | 161 | 0.0 | 2.6 | 0.00 | 0.00 | 0.00 | 57 | 1011.0 |
| 20260905040518 | 92 | 161 | 0.0 | 2.6 | 0.00 | 0.00 | 0.00 | 57 | 1011.2 |
| 20260905040504 | 92 | 83 | 0.9 | 2.6 | 0.00 | 0.00 | 0.00 | 57 | 1011.0 |
| 20260905040004 | 91 | 213 | 0.0 | 2.6 | 0.00 | 0.00 | 0.00 | 58 | 1011.0 |
| 20260905035521 | 91 | 213 | 0.0 | 2.6 | 0.00 | 0.00 | 0.00 | 58 | 1011.2 |
| 20260905035504 | 91 | 179 | 0.9 | 2.6 | 0.00 | 0.00 | 0.00 | 58 | 1011.0 |
| 20260905035004 | 90 | 167 | 0.9 | 2.6 | 0.00 | 0.00 | 0.00 | 59 | 1011.1 |
| 20260905034529 | 91 | 167 | 0.9 | 2.6 | 0.00 | 0.00 | 0.00 | 59 | 1011.3 |
| 20260905034504 | 90 | 172 | 0.9 | 3.5 | 0.00 | 0.00 | 0.00 | 59 | 1011.2 |
| 20260905034004 | 90 | 221 | 0.9 | 2.6 | 0.00 | 0.00 | 0.00 | 59 | 1011.2 |
| 20260905033521 | 90 | 221 | 0.9 | 2.6 | 0.00 | 0.00 | 0.00 | 59 | 1011.4 |
| 20260905033504 | 90 | 226 | 0.9 | 2.6 | 0.00 | 0.00 | 0.00 | 59 | 1011.2 |
| 20260905033004 | 90 | 95 | 0.9 | 2.6 | 0.00 | 0.00 | 0.00 | 59 | 1011.2 |
| 20260905032529 | 90 | 95 | 0.9 | 2.6 | 0.00 | 0.00 | 0.00 | 59 | 1011.4 |
| 20260905032503 | 90 | 147 | 0.9 | 2.6 | 0.00 | 0.00 | 0.00 | 59 | 1011.3 |
| 20260905032003 | 90 | 219 | 0.9 | 3.5 | 0.00 | 0.00 | 0.00 | 59 | 1011.3 |
| 20260905031521 | 90 | 219 | 0.9 | 3.5 | 0.00 | 0.00 | 0.00 | 59 | 1011.5 |
| 20260905031503 | 90 | 50 | 0.9 | 3.5 | 0.00 | 0.00 | 0.00 | 59 | 1011.4 |
| 20260905031004 | 90 | 197 | 0.9 | 2.6 | 0.00 | 0.00 | 0.00 | 59 | 1011.4 |
| 20260905030529 | 90 | 197 | 0.9 | 2.6 | 0.00 | 0.00 | 0.00 | 59 | 1011.6 |
| 20260905030503 | 90 | 174 | 0.9 | 3.5 | 0.00 | 0.00 | 0.00 | 59 | 1011.5 |
| 20260905030003 | 90 | 155 | 0.9 | 3.5 | 0.00 | 0.00 | 0.00 | 60 | 1011.4 |
| 20260905025521 | 90 | 155 | 0.9 | 3.5 | 0.00 | 0.00 | 0.00 | 60 | 1011.6 |
| 20260905025503 | 90 | 175 | 0.9 | 2.6 | 0.00 | 0.00 | 0.00 | 61 | 1011.5 |
| 20260905025003 | 90 | 157 | 0.9 | 3.5 | 0.00 | 0.00 | 0.00 | 60 | 1011.5 |
| 20260905024529 | 90 | 157 | 0.9 | 3.5 | 0.00 | 0.00 | 0.00 | 60 | 1011.6 |
| 20260905024503 | 89 | 143 | 0.9 | 2.6 | 0.00 | 0.00 | 0.00 | 61 | 1011.4 |
| 20260905024003 | 89 | 200 | 0.9 | 2.6 | 0.00 | 0.00 | 0.00 | 61 | 1011.4 |
| 20260905023523 | 89 | 200 | 0.9 | 2.6 | 0.00 | 0.00 | 0.00 | 61 | 1011.6 |
| 20260905023503 | 89 | 148 | 0.9 | 3.5 | 0.00 | 0.00 | 0.00 | 62 | 1011.4 |
| 20260905023003 | 89 | 169 | 0.9 | 2.6 | 0.00 | 0.00 | 0.00 | 61 | 1011.4 |
| 20260905022528 | 89 | 169 | 0.9 | 2.6 | 0.00 | 0.00 | 0.00 | 61 | 1011.6 |
| 20260905022503 | 89 | 163 | 0.0 | 4.3 | 0.00 | 0.00 | 0.00 | 62 | 1011.4 |
| 20260905022003 | 89 | 194 | 1.7 | 4.3 | 0.00 | 0.00 | 0.00 | 61 | 1011.4 |
| 20260905021521 | 89 | 194 | 1.7 | 4.3 | 0.00 | 0.00 | 0.00 | 61 | 1011.6 |
| 20260905021504 | 89 | 184 | 0.9 | 3.5 | 0.00 | 0.00 | 0.00 | 61 | 1011.3 |
| 20260905021004 | 89 | 172 | 0.9 | 3.5 | 0.00 | 0.00 | 0.00 | 62 | 1011.3 |
| 20260905020549 | 89 | 172 | 0.9 | 3.5 | 0.00 | 0.00 | 0.00 | 62 | 1011.5 |
| 20260905020503 | 89 | 179 | 0.9 | 3.5 | 0.00 | 0.00 | 0.00 | 62 | 1011.3 |
| 20260905020004 | 89 | 200 | 0.9 | 3.5 | 0.00 | 0.00 | 0.00 | 62 | 1011.3 |
| 20260905015521 | 89 | 200 | 0.9 | 3.5 | 0.00 | 0.00 | 0.00 | 62 | 1011.5 |
| 20260905015504 | 88 | 186 | 0.0 | 3.5 | 0.00 | 0.00 | 0.00 | 63 | 1011.2 |
| 20260905015004 | 88 | 172 | 0.9 | 3.5 | 0.00 | 0.00 | 0.00 | 62 | 1011.2 |
| 20260905014550 | 88 | 172 | 0.9 | 3.5 | 0.00 | 0.00 | 0.00 | 62 | 1011.4 |
| 20260905014503 | 88 | 191 | 0.9 | 4.3 | 0.00 | 0.00 | 0.00 | 62 | 1011.1 |
| 20260905014003 | 88 | 198 | 0.9 | 3.5 | 0.00 | 0.00 | 0.00 | 63 | 1011.1 |
| 20260905013524 | 88 | 198 | 0.9 | 3.5 | 0.00 | 0.00 | 0.00 | 63 | 1011.3 |
| 20260905013503 | 87 | 166 | 0.9 | 2.6 | 0.00 | 0.00 | 0.00 | 64 | 1011.1 |
| 20260905013004 | 87 | 169 | 0.9 | 3.5 | 0.00 | 0.00 | 0.00 | 64 | 1011.1 |
| 20260905012529 | 87 | 169 | 0.9 | 3.5 | 0.00 | 0.00 | 0.00 | 64 | 1011.2 |
| 20260905012504 | 87 | 330 | 0.9 | 4.3 | 0.00 | 0.00 | 0.00 | 65 | 1011.0 |
| 20260905012004 | 86 | 100 | 0.9 | 2.6 | 0.00 | 0.00 | 0.00 | 65 | 1010.9 |
| 20260905011521 | 87 | 100 | 0.9 | 2.6 | 0.00 | 0.00 | 0.00 | 65 | 1011.1 |
| 20260905011503 | 86 | 170 | 0.9 | 3.5 | 0.00 | 0.00 | 0.00 | 65 | 1010.8 |
| 20260905011003 | 86 | 98 | 0.0 | 2.6 | 0.00 | 0.00 | 0.00 | 65 | 1010.7 |
| 20260905010528 | 86 | 98 | 0.0 | 2.6 | 0.00 | 0.00 | 0.00 | 65 | 1010.9 |
| 20260905010504 | 86 | 212 | 0.9 | 3.5 | 0.00 | 0.00 | 0.00 | 66 | 1010.7 |
| 20260905010004 | 86 | 135 | 0.9 | 2.6 | 0.00 | 0.00 | 0.00 | 66 | 1010.6 |
| 20260905005503 | 86 | 146 | 0.9 | 2.6 | 0.00 | 0.00 | 0.00 | 66 | 1010.5 |
| 20260905005004 | 86 | 140 | 0.9 | 2.6 | 0.00 | 0.00 | 0.00 | 66 | 1010.6 |
| 20260905004528 | 86 | 140 | 0.9 | 2.6 | 0.00 | 0.00 | 0.00 | 66 | 1010.8 |
| 20260905004504 | 86 | 153 | 0.9 | 2.6 | 0.00 | 0.00 | 0.00 | 67 | 1010.5 |
| 20260905004005 | 86 | 147 | 0.9 | 2.6 | 0.00 | 0.00 | 0.00 | 67 | 1010.4 |
| 20260905003520 | 86 | 147 | 0.9 | 2.6 | 0.00 | 0.00 | 0.00 | 67 | 1010.5 |
| 20260905003504 | 85 | 90 | 0.9 | 1.7 | 0.00 | 0.00 | 0.00 | 67 | 1010.2 |
| 20260905003004 | 85 | 167 | 0.9 | 2.6 | 0.00 | 0.00 | 0.00 | 67 | 1010.2 |
| 20260905002527 | 85 | 167 | 0.9 | 2.6 | 0.00 | 0.00 | 0.00 | 67 | 1010.3 |
| 20260905002504 | 85 | 103 | 0.9 | 2.6 | 0.00 | 0.00 | 0.00 | 67 | 1010.1 |
| 20260905002004 | 85 | 157 | 0.9 | 1.7 | 0.00 | 0.00 | 0.00 | 68 | 1010.0 |
| 20260905001523 | 85 | 157 | 0.9 | 1.7 | 0.00 | 0.00 | 0.00 | 68 | 1010.2 |
| 20260905001504 | 85 | 149 | 0.0 | 2.6 | 0.00 | 0.00 | 0.00 | 68 | 1009.9 |
| 20260905001003 | 85 | 128 | 0.9 | 2.6 | 0.00 | 0.00 | 0.00 | 68 | 1009.8 |
| 20260905000550 | 85 | 128 | 0.9 | 2.6 | 0.00 | 0.00 | 0.00 | 68 | 1010.0 |
| 20260905000503 | 85 | 146 | 0.0 | 1.7 | 0.00 | 0.00 | 0.00 | 68 | 1009.7 |
| 20260905000004 | 85 | 133 | 0.0 | 2.6 | 0.00 | 0.00 | 0.00 | 68 | 1009.8 |
| 20260904235521 | 85 | 133 | 0.0 | 2.6 | 0.00 | 0.00 | 0.00 | 68 | 1010.0 |
| 20260904235504 | 85 | 162 | 0.9 | 3.5 | 0.00 | 0.00 | 0.00 | 68 | 1009.7 |
| 20260904235003 | 85 | 194 | 0.9 | 2.6 | 0.00 | 0.00 | 0.00 | 68 | 1009.6 |
| 20260904234529 | 85 | 194 | 0.9 | 2.6 | 0.00 | 0.00 | 0.00 | 68 | 1009.8 |
| 20260904234504 | 84 | 172 | 0.9 | 1.7 | 0.00 | 0.00 | 0.00 | 68 | 1009.6 |
| 20260904234003 | 85 | 182 | 0.9 | 2.6 | 0.00 | 0.00 | 0.00 | 68 | 1009.6 |
| 20260904233541 | 85 | 182 | 0.9 | 2.6 | 0.00 | 0.00 | 0.00 | 68 | 1009.7 |
| 20260904233503 | 85 | 159 | 0.9 | 2.6 | 0.00 | 0.00 | 0.00 | 68 | 1009.5 |
| 20260904233003 | 85 | 143 | 0.9 | 1.7 | 0.00 | 0.00 | 0.00 | 68 | 1009.4 |
| 20260904232528 | 85 | 143 | 0.9 | 1.7 | 0.00 | 0.00 | 0.00 | 68 | 1009.6 |
| 20260904232504 | 85 | 132 | 0.9 | 2.6 | 0.00 | 0.00 | 0.00 | 68 | 1009.5 |
| 20260904232004 | 85 | 146 | 0.9 | 2.6 | 0.00 | 0.00 | 0.00 | 68 | 1009.3 |
| 20260904231543 | 85 | 146 | 0.9 | 2.6 | 0.00 | 0.00 | 0.00 | 68 | 1009.5 |
| 20260904231504 | 85 | 134 | 0.9 | 2.6 | 0.00 | 0.00 | 0.00 | 68 | 1009.2 |
| 20260904231004 | 85 | 115 | 0.9 | 1.7 | 0.00 | 0.00 | 0.00 | 68 | 1009.2 |
| 20260904230528 | 85 | 115 | 0.9 | 1.7 | 0.00 | 0.00 | 0.00 | 68 | 1009.3 |
| 20260904230503 | 85 | 76 | 0.0 | 1.7 | 0.00 | 0.00 | 0.00 | 68 | 1009.2 |
| 20260904230003 | 85 | 139 | 0.0 | 2.6 | 0.00 | 0.00 | 0.00 | 68 | 1009.2 |
| 20260904225520 | 85 | 139 | 0.0 | 2.6 | 0.00 | 0.00 | 0.00 | 68 | 1009.4 |
| 20260904225503 | 85 | 107 | 0.0 | 1.7 | 0.00 | 0.00 | 0.00 | 68 | 1009.1 |
| 20260904225003 | 85 | 132 | 0.0 | 1.7 | 0.00 | 0.00 | 0.00 | 68 | 1009.2 |
| 20260904224528 | 85 | 132 | 0.0 | 1.7 | 0.00 | 0.00 | 0.00 | 68 | 1009.3 |
| 20260904224504 | 85 | 156 | 0.9 | 2.6 | 0.00 | 0.00 | 0.00 | 68 | 1009.2 |
| 20260904224006 | 85 | 117 | 0.9 | 1.7 | 0.00 | 0.00 | 0.00 | 68 | 1009.2 |
| 20260904223520 | 85 | 117 | 0.9 | 1.7 | 0.00 | 0.00 | 0.00 | 68 | 1009.3 |
| 20260904223504 | 85 | 150 | 0.9 | 2.6 | 0.00 | 0.00 | 0.00 | 68 | 1009.1 |
| 20260904223003 | 85 | 116 | 0.9 | 2.6 | 0.00 | 0.00 | 0.00 | 68 | 1009.2 |
| 20260904222528 | 85 | 116 | 0.9 | 2.6 | 0.00 | 0.00 | 0.00 | 68 | 1009.3 |
| 20260904222504 | 85 | 156 | 0.9 | 2.6 | 0.00 | 0.00 | 0.00 | 68 | 1009.1 |
| 20260904222003 | 85 | 165 | 0.9 | 2.6 | 0.00 | 0.00 | 0.00 | 68 | 1009.0 |
| 20260904221540 | 85 | 165 | 0.9 | 2.6 | 0.00 | 0.00 | 0.00 | 68 | 1009.2 |
| 20260904221503 | 85 | 131 | 0.9 | 2.6 | 0.00 | 0.00 | 0.00 | 68 | 1008.9 |
| 20260904221004 | 85 | 164 | 0.9 | 1.7 | 0.00 | 0.00 | 0.00 | 68 | 1008.9 |
| 20260904220608 | 85 | 164 | 0.9 | 1.7 | 0.00 | 0.00 | 0.00 | 68 | 1009.0 |
| 20260904220503 | 85 | 144 | 0.9 | 2.6 | 0.00 | 0.00 | 0.00 | 67 | 1008.9 |
| 20260904220003 | 85 | 143 | 0.9 | 1.7 | 0.00 | 0.00 | 0.00 | 67 | 1008.7 |
| 20260904215528 | 85 | 143 | 0.9 | 1.7 | 0.00 | 0.00 | 0.00 | 67 | 1008.9 |
| 20260904215503 | 85 | 165 | 0.9 | 2.6 | 0.00 | 0.00 | 0.00 | 67 | 1008.7 |
| 20260904215004 | 85 | 138 | 0.0 | 1.7 | 0.00 | 0.00 | 0.00 | 67 | 1008.7 |
| 20260904214520 | 85 | 138 | 0.0 | 1.7 | 0.00 | 0.00 | 0.00 | 67 | 1008.8 |
| 20260904214504 | 85 | 125 | 0.0 | 1.7 | 0.00 | 0.00 | 0.00 | 67 | 1008.5 |
| 20260904214003 | 85 | 135 | 0.9 | 3.5 | 0.00 | 0.00 | 0.00 | 67 | 1008.5 |
| 20260904213528 | 85 | 135 | 0.9 | 3.5 | 0.00 | 0.00 | 0.00 | 67 | 1008.7 |
| 20260904213503 | 85 | 126 | 0.9 | 3.5 | 0.00 | 0.00 | 0.00 | 67 | 1008.4 |
| 20260904213003 | 85 | 142 | 0.0 | 2.6 | 0.00 | 0.00 | 0.00 | 67 | 1008.4 |
| 20260904212520 | 85 | 142 | 0.0 | 2.6 | 0.00 | 0.00 | 0.00 | 67 | 1008.6 |
| 20260904212503 | 85 | 157 | 0.0 | 2.6 | 0.00 | 0.00 | 0.00 | 66 | 1008.4 |
| 20260904212004 | 85 | 147 | 0.9 | 2.6 | 0.00 | 0.00 | 0.00 | 66 | 1008.3 |
| 20260904211527 | 85 | 147 | 0.9 | 2.6 | 0.00 | 0.00 | 0.00 | 66 | 1008.5 |
| 20260904211503 | 85 | 173 | 0.9 | 2.6 | 0.00 | 0.00 | 0.00 | 66 | 1008.3 |
| 20260904211004 | 85 | 145 | 0.9 | 2.6 | 0.00 | 0.00 | 0.00 | 67 | 1008.3 |
| 20260904210520 | 85 | 145 | 0.9 | 2.6 | 0.00 | 0.00 | 0.00 | 67 | 1008.5 |
| 20260904210503 | 85 | 116 | 0.0 | 2.6 | 0.00 | 0.00 | 0.00 | 67 | 1008.3 |
| 20260904210004 | 85 | 130 | 0.9 | 3.5 | 0.00 | 0.00 | 0.00 | 66 | 1008.3 |
| 20260904205527 | 85 | 130 | 0.9 | 3.5 | 0.00 | 0.00 | 0.00 | 66 | 1008.5 |
| 20260904205503 | 85 | 119 | 0.9 | 1.7 | 0.00 | 0.00 | 0.00 | 66 | 1008.4 |
| 20260904205004 | 85 | 0.0 | 1.7 | 0.00 | 0.00 | 0.00 | 66 | 1008.2 | |
| 20260904204520 | 85 | 0.0 | 1.7 | 0.00 | 0.00 | 0.00 | 66 | 1008.4 | |
| 20260904204503 | 85 | 157 | 0.9 | 1.7 | 0.00 | 0.00 | 0.00 | 66 | 1008.4 |
| 20260904204003 | 86 | 120 | 0.0 | 2.6 | 0.00 | 0.00 | 0.00 | 66 | 1008.4 |
| 20260904203530 | 86 | 120 | 0.0 | 2.6 | 0.00 | 0.00 | 0.00 | 66 | 1008.6 |
| 20260904203504 | 86 | 128 | 0.9 | 2.6 | 0.00 | 0.00 | 0.00 | 66 | 1008.4 |
| 20260904203003 | 86 | 130 | 0.0 | 2.6 | 0.00 | 0.00 | 0.00 | 66 | 1008.4 |
| 20260904202519 | 86 | 130 | 0.0 | 2.6 | 0.00 | 0.00 | 0.00 | 66 | 1008.5 |
| 20260904202503 | 86 | 182 | 0.0 | 2.6 | 0.00 | 0.00 | 0.00 | 66 | 1008.4 |
| 20260904202007 | 86 | 124 | 0.9 | 2.6 | 0.00 | 0.00 | 0.00 | 65 | 1008.5 |
| 20260904201544 | 86 | 124 | 0.9 | 2.6 | 0.00 | 0.00 | 0.00 | 65 | 1008.7 |
| 20260904201504 | 86 | 131 | 0.9 | 2.6 | 0.00 | 0.00 | 0.00 | 65 | 1008.5 |
| 20260904201004 | 86 | 148 | 0.0 | 1.7 | 0.00 | 0.00 | 0.00 | 65 | 1008.6 |
| 20260904200551 | 86 | 148 | 0.0 | 1.7 | 0.00 | 0.00 | 0.00 | 65 | 1008.7 |
| 20260904200504 | 86 | 177 | 0.0 | 1.7 | 0.00 | 0.00 | 0.00 | 66 | 1008.6 |
| 20260904200004 | 86 | 136 | 0.0 | 3.5 | 0.00 | 0.00 | 0.00 | 65 | 1008.8 |
| 20260904195522 | 86 | 136 | 0.0 | 3.5 | 0.00 | 0.00 | 0.00 | 65 | 1009.0 |
| 20260904195504 | 86 | 164 | 0.0 | 1.7 | 0.00 | 0.00 | 0.00 | 65 | 1008.7 |
| 20260904195003 | 86 | 149 | 0.0 | 1.7 | 0.00 | 0.00 | 0.00 | 66 | 1008.8 |
| 20260904194530 | 86 | 149 | 0.0 | 1.7 | 0.00 | 0.00 | 0.00 | 66 | 1008.9 |
| 20260904194503 | 86 | 145 | 0.0 | 1.7 | 0.00 | 0.00 | 0.00 | 65 | 1008.8 |
| 20260904194003 | 86 | 128 | 0.0 | 1.7 | 0.00 | 0.00 | 0.00 | 66 | 1008.9 |
| 20260904193522 | 86 | 128 | 0.0 | 1.7 | 0.00 | 0.00 | 0.00 | 66 | 1009.0 |
| 20260904193504 | 86 | 147 | 0.9 | 1.7 | 0.00 | 0.00 | 0.00 | 65 | 1008.9 |
| 20260904193004 | 86 | 130 | 0.9 | 2.6 | 0.00 | 0.00 | 0.00 | 65 | 1008.9 |
| 20260904192531 | 86 | 130 | 0.9 | 2.6 | 0.00 | 0.00 | 0.00 | 65 | 1009.1 |
| 20260904192503 | 86 | 96 | 0.0 | 1.7 | 0.00 | 0.00 | 0.00 | 65 | 1009.0 |
| 20260904192003 | 86 | 125 | 0.9 | 2.6 | 0.00 | 0.00 | 0.00 | 65 | 1009.0 |
| 20260904191518 | 86 | 125 | 0.9 | 2.6 | 0.00 | 0.00 | 0.00 | 65 | 1009.2 |
| 20260904191503 | 86 | 165 | 0.0 | 1.7 | 0.00 | 0.00 | 0.00 | 65 | 1009.1 |
| 20260904191004 | 86 | 169 | 0.9 | 1.7 | 0.00 | 0.00 | 0.00 | 65 | 1009.1 |
| 20260904190526 | 86 | 169 | 0.9 | 1.7 | 0.00 | 0.00 | 0.00 | 65 | 1009.3 |
| 20260904190504 | 86 | 215 | 0.9 | 2.6 | 0.00 | 0.00 | 0.00 | 65 | 1009.0 |
| 20260904190003 | 86 | 122 | 0.0 | 3.5 | 0.00 | 0.00 | 0.00 | 66 | 1009.1 |
| 20260904185518 | 87 | 122 | 0.0 | 3.5 | 0.00 | 0.00 | 0.00 | 66 | 1009.3 |
| 20260904185504 | 86 | 217 | 0.0 | 2.6 | 0.00 | 0.00 | 0.00 | 66 | 1009.2 |
| 20260904185004 | 86 | 274 | 0.0 | 2.6 | 0.00 | 0.00 | 0.00 | 66 | 1009.1 |
| 20260904184523 | 87 | 274 | 0.0 | 2.6 | 0.00 | 0.00 | 0.00 | 66 | 1009.3 |
| 20260904184503 | 87 | 171 | 0.9 | 2.6 | 0.00 | 0.00 | 0.00 | 66 | 1009.2 |
| 20260904184004 | 87 | 144 | 0.9 | 1.7 | 0.00 | 0.00 | 0.00 | 66 | 1009.2 |
| 20260904183531 | 87 | 144 | 0.9 | 1.7 | 0.00 | 0.00 | 0.00 | 66 | 1009.4 |
| 20260904183503 | 87 | 172 | 0.0 | 1.7 | 0.00 | 0.00 | 0.00 | 66 | 1009.2 |
| 20260904183003 | 87 | 189 | 0.9 | 2.6 | 0.00 | 0.00 | 0.00 | 66 | 1009.2 |
| 20260904182604 | 87 | 189 | 0.9 | 2.6 | 0.00 | 0.00 | 0.00 | 66 | 1009.3 |
| 20260904182503 | 87 | 194 | 0.0 | 2.6 | 0.00 | 0.00 | 0.00 | 66 | 1009.2 |
| 20260904182004 | 87 | 190 | 0.0 | 1.7 | 0.00 | 0.00 | 0.00 | 66 | 1009.3 |
| 20260904181531 | 87 | 190 | 0.0 | 1.7 | 0.00 | 0.00 | 0.00 | 66 | 1009.5 |
| 20260904181504 | 87 | 147 | 0.0 | 2.6 | 0.00 | 0.00 | 0.00 | 66 | 1009.2 |